N1PSJ Weather Reports


time (UTC)temp
C
wind
direction
speed
KPH
gust
KPH
rain 1hr
cm
rain 24hr
cm
rain mn
cm
humidity
%
barometer
mb
20260506203807 15 222 4.8 12.9 0.00 0.00 0.00 97 1006.7
20260506203258 15 207 4.8 11.3 0.00 0.00 0.00 97 1006.7
20260506202758 15 239 3.2 16.1 0.00 0.00 0.00 97 1006.7
20260506202325 15 200 3.2 16.1 0.00 0.00 0.00 96 1006.7
20260506201813 15 215 3.2 11.3 0.00 0.00 0.00 96 1006.7
20260506201253 15 239 3.2 9.7 0.00 0.00 0.00 96 1006.7
20260506200759 15 207 3.2 9.7 0.00 0.00 0.00 96 1006.8
20260506200253 15 214 4.8 12.9 0.00 0.00 0.00 96 1006.8
20260506195827 15 216 4.8 14.5 0.00 0.00 0.00 96 1006.8
20260506195327 15 187 4.8 14.5 0.00 0.00 0.00 96 1006.9
20260506194759 15 228 6.4 16.1 0.00 0.00 0.00 96 1006.9
20260506194302 15 205 6.4 16.1 0.00 0.00 0.00 96 1006.9
20260506193804 15 188 4.8 17.7 0.00 0.00 0.00 95 1007.1
20260506193308 15 220 8.0 17.7 0.00 0.00 0.00 95 1007.1
20260506192758 15 205 4.8 16.1 0.00 0.00 0.00 95 1007.1
20260506192259 15 237 6.4 16.1 0.00 0.00 0.00 95 1007.2
20260506191802 15 187 6.4 16.1 0.00 0.00 0.00 95 1007.2
20260506191305 15 208 3.2 14.5 0.00 0.00 0.00 95 1007.2
20260506190753 16 171 4.8 14.5 0.00 0.00 0.00 95 1007.2
20260506190300 15 207 3.2 12.9 0.00 0.00 0.00 95 1007.2
20260506185820 15 178 6.4 20.9 0.00 0.00 0.00 94 1007.2
20260506185306 15 224 6.4 24.1 0.00 0.00 0.00 94 1007.5
20260506184804 15 160 9.7 24.1 0.00 0.00 0.00 94 1007.5
20260506184310 15 259 4.8 20.9 0.00 0.00 0.00 94 1007.5
20260506183801 15 197 8.0 20.9 0.00 0.00 0.00 94 1007.7
20260506183311 15 187 6.4 19.3 0.00 0.00 0.00 94 1007.7
20260506182814 16 216 8.0 17.7 0.00 0.00 0.00 94 1007.7
20260506182317 16 177 6.4 19.3 0.00 0.00 0.00 93 1007.7
20260506181820 16 206 4.8 19.3 0.00 0.00 0.00 93 1007.7
20260506181307 16 193 8.0 14.5 0.00 0.00 0.00 93 1007.7
20260506180810 16 201 3.2 16.1 0.00 0.00 0.00 93 1007.7
20260506180329 16 225 9.7 16.1 0.00 0.00 0.00 92 1007.7
20260506175804 16 168 8.0 14.5 0.00 0.00 0.00 91 1007.7
20260506175310 16 160 3.2 11.3 0.00 0.00 0.00 91 1007.7
20260506174817 16 197 3.2 12.9 0.00 0.00 0.00 90 1007.7
20260506174308 16 202 3.2 12.9 0.00 0.00 0.00 90 1007.7
20260506173756 16 180 4.8 12.9 0.00 0.00 0.00 89 1008.3
20260506173320 16 178 3.2 14.5 0.00 0.00 0.00 89 1008.3
20260506172753 16 202 3.2 16.1 0.00 0.00 0.00 87 1008.3
20260506172320 16 212 4.8 16.1 0.00 0.00 0.00 87 1008.6
20260506171822 17 219 3.2 14.5 0.00 0.00 0.00 86 1008.6
20260506171304 17 164 4.8 19.3 0.00 0.00 0.00 84 1008.6
20260506170807 17 223 6.4 19.3 0.00 0.00 0.00 84 1008.7
20260506170314 17 237 6.4 19.3 0.00 0.00 0.00 83 1008.7
20260506165820 17 200 8.0 20.9 0.00 0.00 0.00 81 1008.7
20260506165310 17 182 9.7 17.7 0.00 0.00 0.00 80 1008.8
20260506164759 17 176 9.7 19.3 0.00 0.00 0.00 79 1008.8
20260506164323 17 260 8.0 19.3 0.00 0.00 0.00 79 1008.8
20260506163821 17 208 4.8 20.9 0.00 0.00 0.00 78 1008.6
20260506163339 18 198 11.3 20.9 0.00 0.00 0.00 77 1008.6
20260506162809 18 212 9.7 25.7 0.00 0.00 0.00 77 1008.6
20260506162256 18 258 9.7 25.7 0.00 0.00 0.00 77 1008.6
20260506161812 18 249 9.7 22.5 0.00 0.00 0.00 76 1008.6
20260506161303 18 185 9.7 22.5 0.00 0.00 0.00 74 1008.6
20260506160807 18 178 9.7 22.5 0.00 0.00 0.00 73 1008.8
20260506160312 18 198 6.4 22.5 0.00 0.00 0.00 72 1008.8
20260506155812 18 193 4.8 16.1 0.00 0.00 0.00 72 1008.8
20260506155300 18 200 4.8 27.4 0.00 0.00 0.00 73 1008.9
20260506154838 18 204 11.3 27.4 0.00 0.00 0.00 72 1008.9
20260506154311 19 202 9.7 20.9 0.00 0.00 0.00 72 1008.9
20260506153753 19 214 11.3 20.9 0.00 0.00 0.00 71 1008.8
20260506153317 19 210 9.7 20.9 0.00 0.00 0.00 70 1008.8
20260506152822 19 210 9.7 20.9 0.00 0.00 0.00 70 1008.8
20260506152311 19 191 9.7 19.3 0.00 0.00 0.00 70 1008.8
20260506151809 19 173 4.8 22.5 0.00 0.00 0.00 70 1008.8
20260506151307 19 191 11.3 22.5 0.00 0.00 0.00 70 1008.8
20260506150817 19 199 4.8 16.1 0.00 0.00 0.00 71 1008.8
20260506150304 19 260 8.0 24.1 0.00 0.00 0.00 70 1008.8
20260506145759 19 199 11.3 24.1 0.00 0.00 0.00 70 1008.8
20260506145259 19 175 9.7 16.1 0.00 0.00 0.00 71 1009.2
20260506144757 19 241 1.6 16.1 0.00 0.00 0.00 72 1009.2
20260506144314 19 189 6.4 16.1 0.00 0.00 0.00 72 1009.2
20260506143813 19 189 6.4 20.9 0.00 0.00 0.00 72 1009.2
20260506143303 19 218 8.0 20.9 0.00 0.00 0.00 72 1009.2
20260506142806 19 210 4.8 14.5 0.00 0.00 0.00 73 1009.2
20260506142313 18 259 6.4 12.9 0.00 0.00 0.00 74 1009.2
20260506141817 18 245 6.4 16.1 0.00 0.00 0.00 74 1009.2
20260506141304 18 179 6.4 17.7 0.00 0.00 0.00 75 1009.2
20260506140806 18 195 9.7 17.7 0.00 0.00 0.00 75 1009.3
20260506140327 18 182 9.7 17.7 0.00 0.00 0.00 76 1009.3
20260506135802 18 195 8.0 14.5 0.00 0.00 0.00 76 1009.3
20260506135307 18 206 6.4 17.7 0.00 0.00 0.00 76 1009.3
20260506134758 18 210 6.4 19.3 0.00 0.00 0.00 77 1009.3
20260506134259 18 171 8.0 14.5 0.00 0.00 0.00 77 1009.3
20260506133819 17 197 8.0 20.9 0.00 0.00 0.00 78 1009.2
20260506133301 17 225 8.0 20.9 0.00 0.00 0.00 78 1009.2
20260506132758 17 193 8.0 17.7 0.00 0.00 0.00 78 1009.2
20260506132258 17 208 8.0 17.7 0.00 0.00 0.00 79 1009.3
20260506131822 17 193 6.4 14.5 0.00 0.00 0.00 80 1009.3
20260506131312 17 204 6.4 12.9 0.00 0.00 0.00 81 1009.3
20260506130758 17 209 3.2 11.3 0.00 0.00 0.00 81 1009.4
20260506130256 17 228 1.6 12.9 0.00 0.00 0.00 82 1009.4
20260506125759 17 195 4.8 14.5 0.00 0.00 0.00 82 1009.4
20260506125307 16 189 3.2 14.5 0.00 0.00 0.00 82 1009.8
20260506124759 16 206 4.8 17.7 0.00 0.00 0.00 83 1009.8
20260506124320 16 209 4.8 17.7 0.00 0.00 0.00 83 1009.8
20260506123805 16 177 4.8 14.5 0.00 0.00 0.00 83 1009.8
20260506123255 16 229 4.8 16.1 0.00 0.00 0.00 83 1009.8
20260506122818 16 176 4.8 14.5 0.00 0.00 0.00 83 1009.8
20260506122342 16 200 1.6 19.3 0.00 0.00 0.00 84 1009.8
20260506121818 16 185 9.7 19.3 0.00 0.00 0.00 83 1009.8
20260506121336 16 178 8.0 17.7 0.00 0.00 0.00 83 1009.8
20260506120809 16 193 8.0 22.5 0.00 0.00 0.00 84 1009.8
20260506120308 16 252 8.0 22.5 0.00 0.00 0.00 84 1009.8
20260506115754 16 193 6.4 12.9 0.00 0.00 0.00 85 1009.8
20260506115319 16 266 3.2 19.3 0.00 0.00 0.00 85 1009.8
20260506114841 16 247 8.0 19.3 0.00 0.00 0.00 85 1009.8
20260506114320 15 268 9.7 16.1 0.00 0.00 0.00 86 1009.8
20260506113840 15 212 6.4 16.1 0.00 0.00 0.00 86 1009.8
20260506113313 15 226 6.4 11.3 0.00 0.00 0.00 86 1009.8
20260506112759 15 233 4.8 12.9 0.00 0.00 0.00 87 1009.8
20260506112258 15 185 6.4 16.1 0.00 0.00 0.00 87 1010.1
20260506111757 15 218 9.7 16.1 0.00 0.00 0.00 87 1010.1
20260506111257 15 210 6.4 17.7 0.00 0.00 0.00 87 1010.1
20260506110759 15 178 4.8 14.5 0.00 0.00 0.00 88 1010.0
20260506110305 15 205 6.4 14.5 0.00 0.00 0.00 88 1010.0
20260506105800 15 203 6.4 11.3 0.00 0.00 0.00 88 1010.0
20260506105301 15 208 3.2 11.3 0.00 0.00 0.00 89 1009.9
20260506104805 15 191 1.6 12.9 0.00 0.00 0.00 89 1009.9
20260506104306 15 187 4.8 12.9 0.00 0.00 0.00 89 1009.9
20260506103825 15 258 3.2 11.3 0.00 0.00 0.00 89 1009.8
20260506103310 14 207 6.4 12.9 0.00 0.00 0.00 89 1009.8
20260506102801 14 177 3.2 12.9 0.00 0.00 0.00 89 1009.8
20260506102259 14 191 0.0 9.7 0.00 0.00 0.00 89 1009.8
20260506101803 14 188 0.0 16.1 0.00 0.00 0.00 89 1009.8
20260506101323 14 194 6.4 16.1 0.00 0.00 0.00 89 1009.8
20260506100757 14 231 1.6 12.9 0.00 0.00 0.00 89 1009.8
20260506100303 14 176 6.4 12.9 0.00 0.00 0.00 89 1009.8
20260506095815 14 202 3.2 9.7 0.00 0.00 0.00 89 1009.8
20260506095318 14 243 3.2 9.7 0.00 0.00 0.00 88 1009.8
20260506094808 14 201 4.8 9.7 0.00 0.00 0.00 88 1009.8
20260506094309 14 225 3.2 11.3 0.00 0.00 0.00 88 1009.8
20260506093813 14 206 3.2 11.3 0.00 0.00 0.00 88 1009.7
20260506093316 14 183 6.4 11.3 0.00 0.00 0.00 88 1009.7
20260506092806 14 206 3.2 14.5 0.00 0.00 0.00 87 1009.7
20260506092319 15 198 4.8 14.5 0.00 0.00 0.00 87 1009.8
20260506091810 15 226 3.2 17.7 0.00 0.00 0.00 87 1009.8
20260506091307 15 189 8.0 17.7 0.00 0.00 0.00 87 1009.8
20260506090810 15 182 4.8 14.5 0.00 0.00 0.00 87 1009.8
20260506090316 15 230 3.2 14.5 0.00 0.00 0.00 86 1009.8
20260506085841 15 182 6.4 17.7 0.00 0.00 0.00 86 1009.8
20260506085310 15 217 8.0 17.7 0.00 0.00 0.00 86 1009.8
20260506084811 15 191 6.4 14.5 0.00 0.00 0.00 86 1009.8
20260506084308 15 209 8.0 14.5 0.00 0.00 0.00 86 1009.8
20260506083832 15 182 4.8 11.3 0.00 0.00 0.00 85 1009.8
20260506083314 15 204 4.8 16.1 0.00 0.00 0.00 85 1009.8
20260506082818 15 188 8.0 14.5 0.00 0.00 0.00 85 1009.8
20260506082305 15 207 6.4 14.5 0.00 0.00 0.00 85 1009.8
20260506081802 15 234 6.4 11.3 0.00 0.00 0.00 84 1009.8
20260506081302 15 178 4.8 14.5 0.00 0.00 0.00 84 1009.8
20260506080803 15 198 4.8 16.1 0.00 0.00 0.00 84 1009.9
20260506080256 15 231 4.8 16.1 0.00 0.00 0.00 84 1009.9
20260506073309 15 221 4.8 11.3 0.00 0.00 0.00 83 1009.8
20260506072810 15 202 1.6 16.1 0.00 0.00 0.00 82 1009.8
20260506072301 15 220 8.0 16.1 0.00 0.00 0.00 82 1009.8
20260506071802 15 206 3.2 16.1 0.00 0.00 0.00 82 1009.8
20260506071301 15 233 3.2 14.5 0.00 0.00 0.00 81 1009.8
20260506070803 15 198 4.8 12.9 0.00 0.00 0.00 81 1009.8
20260506070257 16 220 4.8 19.3 0.00 0.00 0.00 81 1009.8
20260506062300 16 179 1.6 11.3 0.00 0.00 0.00 80 1009.7
20260506061801 16 230 1.6 11.3 0.00 0.00 0.00 80 1009.7
20260506061256 16 168 1.6 9.7 0.00 0.00 0.00 79 1009.7
20260506060759 16 203 3.2 12.9 0.00 0.00 0.00 79 1009.6
20260506060317 16 202 6.4 12.9 0.00 0.00 0.00 79 1009.6
20260506051317 17 215 4.8 12.9 0.00 0.00 0.00 75 1009.9
20260506050820 17 222 3.2 12.9 0.00 0.00 0.00 75 1010.0
20260506050307 17 254 4.8 12.9 0.00 0.00 0.00 74 1010.0
20260506044813 17 200 3.2 14.5 0.00 0.00 0.00 72 1010.2
20260506044314 17 239 1.6 9.7 0.00 0.00 0.00 71 1010.2
20260506043818 17 269 1.6 12.9 0.00 0.00 0.00 70 1010.1
20260506043310 17 199 3.2 17.7 0.00 0.00 0.00 70 1010.1
20260506042834 17 211 4.8 17.7 0.00 0.00 0.00 69 1010.1
20260506042310 17 211 1.6 9.7 0.00 0.00 0.00 69 1010.2
20260506041823 17 198 1.6 9.7 0.00 0.00 0.00 68 1010.2
20260506041304 17 216 3.2 9.7 0.00 0.00 0.00 68 1010.2
20260506040814 17 235 0.0 14.5 0.00 0.00 0.00 68 1010.2
20260506040314 18 212 6.4 14.5 0.00 0.00 0.00 67 1010.2
20260506035809 18 201 1.6 8.0 0.00 0.00 0.00 67 1010.2
20260506035308 18 224 1.6 16.1 0.00 0.00 0.00 67 1010.1
20260506034806 18 196 6.4 16.1 0.00 0.00 0.00 67 1010.1
20260506034328 18 186 1.6 12.9 0.00 0.00 0.00 67 1010.1
20260506033806 18 231 4.8 16.1 0.00 0.00 0.00 66 1010.2
20260506033301 18 193 8.0 16.1 0.00 0.00 0.00 66 1010.2
20260506032804 18 181 4.8 12.9 0.00 0.00 0.00 66 1010.2
20260506032306 18 196 4.8 9.7 0.00 0.00 0.00 66 1010.1
20260506031805 18 236 3.2 11.3 0.00 0.00 0.00 66 1010.1
20260506031258 18 198 4.8 11.3 0.00 0.00 0.00 66 1010.1
20260506030758 18 223 4.8 14.5 0.00 0.00 0.00 66 1009.9
20260506030309 18 204 4.8 14.5 0.00 0.00 0.00 66 1009.9
20260506025815 18 181 4.8 14.5 0.00 0.00 0.00 66 1009.9
20260506025308 18 206 4.8 14.5 0.00 0.00 0.00 67 1009.9
20260506024756 18 232 4.8 12.9 0.00 0.00 0.00 66 1009.9
20260506024256 18 189 4.8 9.7 0.00 0.00 0.00 66 1009.9
20260506023820 18 232 3.2 11.3 0.00 0.00 0.00 66 1009.9
20260506023320 18 221 4.8 12.9 0.00 0.00 0.00 65 1009.9
20260506022812 18 210 4.8 16.1 0.00 0.00 0.00 65 1009.9
20260506022256 18 233 1.6 16.1 0.00 0.00 0.00 65 1010.0
20260506021759 18 219 3.2 11.3 0.00 0.00 0.00 65 1010.0
20260506021300 18 200 4.8 12.9 0.00 0.00 0.00 65 1010.0
20260506020757 18 151 4.8 12.9 0.00 0.00 0.00 65 1009.9
20260506020256 18 202 1.6 8.0 0.00 0.00 0.00 64 1009.9
20260506015803 18 204 1.6 11.3 0.00 0.00 0.00 64 1009.9
20260506015301 18 248 1.6 12.9 0.00 0.00 0.00 64 1009.8
20260506014759 18 184 8.0 17.7 0.00 0.00 0.00 63 1009.8
20260506014305 18 193 6.4 17.7 0.00 0.00 0.00 63 1009.8
20260506013822 18 203 3.2 12.9 0.00 0.00 0.00 63 1009.7
20260506013310 18 218 4.8 16.1 0.00 0.00 0.00 62 1009.7
20260506012812 18 222 3.2 16.1 0.00 0.00 0.00 62 1009.7
20260506012319 18 177 3.2 9.7 0.00 0.00 0.00 62 1009.3
20260506011822 18 189 4.8 14.5 0.00 0.00 0.00 61 1009.3
20260506011253 18 212 3.2 11.3 0.00 0.00 0.00 61 1009.3
20260506010759 18 202 4.8 11.3 0.00 0.00 0.00 61 1009.3
20260506010305 18 212 0.0 11.3 0.00 0.00 0.00 61 1009.3
20260506005803 18 214 3.2 11.3 0.00 0.00 0.00 61 1009.3
20260506005306 19 220 0.0 12.9 0.00 0.00 0.00 60 1009.2
20260506004807 19 220 4.8 16.1 0.00 0.00 0.00 60 1009.2
20260506004305 19 197 3.2 16.1 0.00 0.00 0.00 60 1009.2
20260506003835 19 205 0.0 11.3 0.00 0.00 0.00 60 1008.8
20260506003304 19 201 4.8 17.7 0.00 0.00 0.00 59 1008.8
20260506002805 19 220 4.8 12.9 0.00 0.00 0.00 59 1008.8
20260506002311 19 226 6.4 14.5 0.00 0.00 0.00 59 1008.6
20260506001816 20 215 6.4 14.5 0.00 0.00 0.00 59 1008.6
20260506001307 20 219 1.6 14.5 0.00 0.00 0.00 59 1008.6
20260506000810 20 186 4.8 17.7 0.00 0.00 0.00 59 1008.3
20260506000335 20 179 6.4 17.7 0.00 0.00 0.00 58 1008.3
20260505235756 20 234 6.4 17.7 0.00 0.00 0.00 58 1008.3
20260505235257 20 174 8.0 20.9 0.00 0.00 0.00 58 1008.3
20260505234818 20 224 9.7 20.9 0.00 0.00 0.00 58 1008.3
20260505234314 20 245 4.8 12.9 0.00 0.00 0.00 58 1008.3
20260505233830 20 209 4.8 22.5 0.00 0.00 0.00 57 1008.0
20260505233308 20 185 6.4 22.5 0.00 0.00 0.00 57 1008.0
20260505232811 20 221 4.8 19.3 0.00 0.00 0.00 57 1008.0
20260505232317 21 171 6.4 19.3 0.00 0.00 0.00 57 1007.8
20260505231805 21 188 8.0 20.9 0.00 0.00 0.00 56 1007.8
20260505231325 21 241 9.7 22.5 0.00 0.00 0.00 56 1007.8
20260505230845 21 172 8.0 22.5 0.00 0.00 0.00 56 1007.7
20260505230309 21 189 11.3 20.9 0.00 0.00 0.00 56 1007.7
20260505225814 21 209 8.0 20.9 0.00 0.00 0.00 55 1007.7
20260505225316 21 180 11.3 22.5 0.00 0.00 0.00 55 1007.3
20260505224823 21 198 11.3 22.5 0.00 0.00 0.00 55 1007.3
20260505224308 21 169 11.3 29.0 0.00 0.00 0.00 54 1007.3
20260505223808 22 167 12.9 29.0 0.00 0.00 0.00 53 1006.9
20260505223316 22 157 8.0 20.9 0.00 0.00 0.00 53 1006.9
20260505222756 22 214 11.3 27.4 0.00 0.00 0.00 53 1006.9
20260505222258 22 175 9.7 24.1 0.00 0.00 0.00 52 1007.3
20260505221801 22 193 11.3 24.1 0.00 0.00 0.00 52 1007.3
20260505221259 22 204 8.0 19.3 0.00 0.00 0.00 52 1007.3
20260505220820 22 231 9.7 19.3 0.00 0.00 0.00 53 1007.3
20260505220256 22 226 8.0 20.9 0.00 0.00 0.00 52 1007.3
20260505215756 22 208 9.7 17.7 0.00 0.00 0.00 52 1007.3
20260505215300 23 166 8.0 19.3 0.00 0.00 0.00 52 1007.4
20260505214816 23 218 9.7 27.4 0.00 0.00 0.00 51 1007.4
20260505214305 23 220 12.9 27.4 0.00 0.00 0.00 51 1007.4
20260505213813 23 196 6.4 25.7 0.00 0.00 0.00 51 1007.3
20260505213253 23 210 12.9 22.5 0.00 0.00 0.00 50 1007.3
20260505212756 23 222 6.4 22.5 0.00 0.00 0.00 51 1007.3
20260505212258 23 210 12.9 22.5 0.00 0.00 0.00 51 1007.4
20260505211820 23 172 8.0 20.9 0.00 0.00 0.00 51 1007.4
20260505211420 23 220 9.7 24.1 0.00 0.00 0.00 53 1007.4
20260505210800 23 218 11.3 24.1 0.00 0.00 0.00 50 1007.2
20260505210314 23 229 11.3 25.7 0.00 0.00 0.00 49 1007.2
20260505205819 23 160 6.4 24.1 0.00 0.00 0.00 49 1007.2
20260505205339 23 192 9.7 20.9 0.00 0.00 0.00 49 1007.2
20260505204809 24 179 12.9 20.9 0.00 0.00 0.00 47 1007.2
20260505204257 24 203 4.8 19.3 0.00 0.00 0.00 48 1007.2